CW7500 Weather Reports


Display with metric or nautical units.
time (UTC)temp
F
wind
direction
speed
MPH
gust
MPH
rain 1hr
in
rain 24hr
in
rain mn
in
humidity
%
barometer
mb
20260503013009 47 238 0.0 0.0 0.00 0.06 0.06 100 1009.1
20260503012510 47 223 1.0 1.0 0.00 0.06 0.06 100 1009.1
20260503011509 47 241 1.0 1.0 0.00 0.06 0.06 100 1008.9
20260503011010 47 236 0.0 1.0 0.00 0.06 0.06 100 1008.9
20260503010509 47 249 0.0 1.0 0.00 0.06 0.06 100 1008.9
20260503005509 47 238 0.0 0.0 0.00 0.06 0.06 100 1008.6
20260503005009 47 238 0.0 0.0 0.00 0.06 0.06 100 1008.6
20260503004510 47 144 0.0 0.0 0.00 0.06 0.06 100 1008.6
20260503003509 47 147 0.0 0.0 0.00 0.06 0.06 100 1008.7
20260503003010 47 147 0.0 0.0 0.00 0.06 0.06 100 1008.6
20260503002510 47 264 0.0 0.0 0.00 0.06 0.06 100 1008.6
20260503002009 47 271 0.0 1.0 0.00 0.06 0.06 100 1008.6
20260503001510 47 253 0.0 1.0 0.00 0.06 0.06 100 1008.6
20260503000509 47 206 0.0 0.0 0.00 0.06 0.06 100 1008.6
20260503000010 47 218 0.0 1.0 0.00 0.06 0.06 100 1008.7
20260502235509 47 139 0.0 1.0 0.00 0.06 0.06 100 1008.5
20260502235009 48 181 1.0 1.0 0.00 0.06 0.06 100 1008.6
20260502234509 48 139 0.0 0.0 0.00 0.06 0.06 99 1008.6
20260502234009 48 135 0.0 1.0 0.00 0.06 0.06 99 1008.6
20260502233509 48 154 0.0 1.0 0.00 0.06 0.06 99 1008.5
20260502233010 48 168 0.0 0.0 0.00 0.06 0.06 99 1008.5
20260502232509 48 218 0.0 0.0 0.00 0.06 0.06 99 1008.5
20260502232009 48 173 0.0 1.0 0.00 0.06 0.06 99 1008.5
20260502231509 48 221 0.0 0.0 0.00 0.06 0.06 99 1008.5
20260502231009 48 230 0.0 1.0 0.00 0.06 0.06 99 1008.5
20260502225509 48 203 0.0 0.0 0.02 0.06 0.06 98 1008.4
20260502225010 48 216 0.0 2.0 0.02 0.06 0.06 98 1008.5
20260502224509 48 229 0.0 1.0 0.02 0.06 0.06 98 1008.4
20260502224009 48 216 0.0 0.0 0.02 0.06 0.06 98 1008.3
20260502223509 48 191 0.0 1.0 0.02 0.06 0.06 98 1008.3
20260502222509 48 173 0.0 0.0 0.02 0.06 0.06 96 1008.2
20260502222009 48 131 0.0 1.0 0.02 0.06 0.06 96 1008.4
20260502221509 48 208 0.0 1.0 0.02 0.06 0.06 95 1008.5
20260502221009 48 117 0.0 0.0 0.02 0.06 0.06 95 1008.5
20260502220509 48 172 0.0 0.0 0.00 0.04 0.04 94 1008.6
20260502220009 48 205 0.0 1.0 0.00 0.04 0.04 93 1008.6
20260502215509 48 230 1.0 1.0 0.00 0.04 0.04 93 1008.6
20260502214509 48 217 0.0 1.0 0.00 0.04 0.04 93 1008.6
20260502214008 48 198 0.0 1.0 0.00 0.04 0.04 93 1008.7
20260502213008 49 255 1.0 2.0 0.00 0.04 0.04 92 1008.6
20260502212509 49 225 1.0 2.0 0.00 0.04 0.04 90 1008.6
20260502212009 50 248 2.0 5.0 0.00 0.04 0.04 84 1008.6
20260502211509 50 280 2.0 5.0 0.00 0.04 0.04 82 1008.6
20260502211009 50 287 2.0 6.0 0.00 0.04 0.04 81 1008.6
20260502205509 53 241 3.0 6.0 0.00 0.04 0.04 69 1008.5
20260502205008 54 188 2.0 5.0 0.00 0.04 0.04 65 1008.4
20260502204509 55 267 1.0 6.0 0.00 0.04 0.04 66 1008.1
20260502203509 55 233 2.0 5.0 0.00 0.04 0.04 61 1008.2
20260502203009 56 154 2.0 6.0 0.00 0.04 0.04 58 1008.2
20260502202509 56 168 2.0 6.0 0.00 0.04 0.04 59 1008.2
20260502202009 55 202 2.0 5.0 0.00 0.04 0.04 62 1008.2
20260502201509 55 164 3.0 6.0 0.00 0.04 0.04 63 1008.4
20260502200508 56 200 2.0 8.0 0.00 0.04 0.04 60 1008.4
20260502195509 56 103 2.0 5.0 0.00 0.04 0.04 58 1008.3
20260502195009 56 236 2.0 6.0 0.00 0.04 0.04 63 1008.5
20260502194508 55 244 3.0 7.0 0.00 0.04 0.04 55 1008.5
20260502194009 55 188 3.0 9.0 0.00 0.04 0.04 48 1008.7
20260502193509 55 241 3.0 6.0 0.00 0.04 0.04 54 1008.6
20260502193008 56 279 3.0 9.0 0.00 0.04 0.04 49 1008.7
20260502192509 56 216 4.0 9.0 0.00 0.04 0.04 46 1008.9
20260502192008 56 237 3.0 6.0 0.00 0.04 0.04 47 1008.9
20260502191508 56 119 3.0 7.0 0.00 0.04 0.04 59 1009.0
20260502190008 55 186 2.0 6.0 0.00 0.04 0.04 60 1009.0
20260502185008 53 246 4.0 9.0 0.00 0.04 0.04 67 1009.1
20260502184508 53 234 3.0 7.0 0.00 0.04 0.04 67 1009.1
20260502184009 54 207 3.0 9.0 0.00 0.04 0.04 67 1009.1
20260502183509 54 187 3.0 7.0 0.00 0.04 0.04 76 1009.1
20260502183008 54 257 3.0 5.0 0.00 0.04 0.04 73 1009.2
20260502182508 53 159 2.0 8.0 0.00 0.04 0.04 79 1009.2
20260502182008 53 205 2.0 7.0 0.00 0.04 0.04 77 1009.1
20260502181509 53 114 2.0 5.0 0.00 0.04 0.04 76 1009.1
20260502181008 52 168 3.0 5.0 0.00 0.04 0.04 80 1009.1
20260502180509 52 240 2.0 7.0 0.00 0.04 0.04 76 1009.1
20260502170508 53 234 1.0 2.0 0.00 0.04 0.04 68 1009.6
20260502164009 53 210 1.0 5.0 0.00 0.04 0.04 57 1009.7
20260502163008 54 156 3.0 7.0 0.00 0.04 0.04 60 1009.7
20260502162508 54 334 3.0 6.0 0.00 0.04 0.04 64 1009.7
20260502162008 54 188 2.0 6.0 0.00 0.04 0.04 64 1009.7
20260502161508 54 199 2.0 5.0 0.00 0.04 0.04 64 1009.7
20260502161008 54 72 1.0 5.0 0.00 0.04 0.04 70 1009.5
20260502152008 52 120 1.0 2.0 0.00 0.04 0.04 84 1010.3
20260502151508 52 253 1.0 2.0 0.00 0.04 0.04 83 1010.2
20260502151008 52 89 0.0 2.0 0.00 0.04 0.04 84 1010.5
20260502150508 52 171 2.0 6.0 0.00 0.04 0.04 84 1010.7
20260502130507 47 251 0.0 1.0 0.00 0.02 0.02 98 1011.5
20260502123508 48 241 1.0 2.0 0.00 0.02 0.02 87 1011.4
20260502123008 48 273 1.0 3.0 0.00 0.02 0.02 86 1011.2
20260502122507 48 250 1.0 2.0 0.00 0.02 0.02 87 1011.4
20260502121507 48 228 2.0 5.0 0.00 0.02 0.02 86 1011.0
20260502121007 48 244 2.0 2.0 0.00 0.02 0.02 90 1010.8
20260502120508 47 267 1.0 2.0 0.00 0.02 0.02 89 1010.6
20260502115008 47 350 1.0 1.0 0.02 0.02 0.02 87 1010.3
20260502114008 47 273 1.0 2.0 0.02 0.02 0.02 91 1010.2
20260502113508 47 243 1.0 2.0 0.02 0.02 0.02 89 1010.2
20260502113007 46 279 2.0 3.0 0.02 0.02 0.02 90 1010.2
20260502112507 46 290 1.0 2.0 0.02 0.02 0.02 92 1010.5
20260502112008 46 248 1.0 2.0 0.02 0.02 0.02 91 1010.3
20260502111507 46 182 1.0 2.0 0.02 0.02 0.02 93 1010.4
20260502111007 46 213 1.0 2.0 0.02 0.02 0.02 93 1010.5
20260502110508 46 266 1.0 2.0 0.02 0.02 0.02 93 1010.2
20260502110007 46 260 0.0 1.0 0.02 0.02 0.02 95 1010.3
20260502105007 46 135 0.0 2.0 0.00 0.00 0.00 90 1010.0
20260502104507 47 205 0.0 2.0 0.00 0.00 0.00 89 1010.2
20260502104007 46 211 1.0 2.0 0.00 0.00 0.00 88 1010.2
20260502103007 46 234 0.0 1.0 0.00 0.00 0.00 85 1010.1
20260502102007 46 227 1.0 2.0 0.00 0.00 0.00 87 1009.8
20260502101508 46 168 0.0 2.0 0.00 0.00 0.00 88 1009.8
20260502101007 46 208 1.0 2.0 0.00 0.00 0.00 86 1009.9
20260502100508 46 233 1.0 2.0 0.00 0.00 0.00 85 1009.7
20260502091507 46 141 0.0 1.0 0.00 0.00 0.00 86 1009.5
20260502091007 46 86 0.0 0.0 0.00 0.00 0.00 84 1009.5
20260502090507 46 71 0.0 0.0 0.00 0.00 0.00 84 1009.4
20260502071006 48 183 1.0 1.0 0.00 0.00 0.00 73 1009.7
20260502070507 48 193 1.0 2.0 0.00 0.00 0.00 76 1009.8
20260502070007 48 209 2.0 3.0 0.00 0.00 0.00 75 1009.9
20260502065007 48 274 1.0 3.0 0.00 0.00 0.00 72 1009.7
20260502064506 48 238 0.0 2.0 0.00 0.00 0.00 71 1009.9
20260502064007 48 40 1.0 3.0 0.00 0.02 0.00 69 1010.0
20260502063506 48 250 1.0 2.0 0.00 0.02 0.00 69 1010.2
20260502063007 48 206 1.0 1.0 0.00 0.02 0.00 70 1010.2
20260502062507 48 192 0.0 2.0 0.00 0.02 0.00 69 1010.0
20260502062006 48 203 0.0 1.0 0.00 0.02 0.00 68 1009.8
20260502061506 48 181 0.0 2.0 0.00 0.02 0.00 67 1009.7
20260502061006 48 144 1.0 3.0 0.00 0.02 0.00 67 1009.7
20260502060506 48 231 0.0 0.0 0.00 0.02 0.00 65 1009.7
20260502060007 48 151 0.0 1.0 0.00 0.02 0.00 66 1009.8
20260502055506 48 181 0.0 2.0 0.00 0.02 0.00 65 1009.8
20260502055007 48 180 1.0 2.0 0.00 0.02 0.00 64 1009.8
20260502054506 48 205 1.0 1.0 0.00 0.02 0.00 65 1009.8
20260502053506 48 219 1.0 2.0 0.00 0.02 0.00 65 1009.8
20260502053007 48 233 1.0 2.0 0.00 0.02 0.00 65 1009.9
20260502052506 48 246 1.0 1.0 0.00 0.02 0.00 63 1009.8
20260502052006 48 231 1.0 2.0 0.00 0.02 0.00 63 1009.8
20260502051506 48 203 1.0 2.0 0.00 0.02 0.00 62 1009.8
20260502051006 48 242 1.0 2.0 0.00 0.02 0.00 61 1009.8
20260502050507 48 227 1.0 2.0 0.00 0.02 0.00 63 1009.9
20260502045506 48 223 1.0 1.0 0.00 0.02 0.00 61 1009.8
20260502045006 48 206 1.0 1.0 0.00 0.02 0.00 62 1009.9
20260502044507 48 232 1.0 1.0 0.00 0.02 0.00 60 1010.0
20260502044006 48 213 0.0 1.0 0.00 0.02 0.00 61 1009.8
20260502043507 48 222 1.0 1.0 0.00 0.02 0.00 62 1010.1
20260502043006 48 233 1.0 1.0 0.00 0.02 0.00 60 1010.1
20260502042506 48 252 1.0 1.0 0.00 0.02 0.00 58 1010.3
20260502042007 48 241 1.0 2.0 0.00 0.02 0.00 57 1010.2
20260502041506 48 237 1.0 2.0 0.00 0.02 0.00 57 1010.2
20260502041006 48 249 1.0 2.0 0.00 0.02 0.00 56 1010.1
20260502035507 49 237 1.0 2.0 0.00 0.02 0.02 54 1010.0
20260502035006 49 240 1.0 2.0 0.00 0.02 0.02 53 1010.1
20260502034507 49 250 1.0 2.0 0.00 0.02 0.02 53 1010.1
20260502034006 49 252 1.0 2.0 0.00 0.02 0.02 53 1010.1
20260502033506 48 252 1.0 2.0 0.00 0.02 0.02 55 1010.2
20260502032506 48 243 1.0 3.0 0.00 0.02 0.02 53 1010.3
20260502031506 49 240 1.0 3.0 0.00 0.02 0.02 51 1010.2
20260502031006 49 238 1.0 2.0 0.00 0.02 0.02 51 1010.2
20260502030506 49 228 1.0 1.0 0.00 0.02 0.02 50 1010.0
20260502030006 50 225 0.0 1.0 0.00 0.02 0.02 48 1009.8
20260502025506 50 236 1.0 3.0 0.00 0.02 0.02 50 1009.9
20260502024506 52 151 0.0 1.0 0.00 0.02 0.02 45 1009.8
20260502024006 52 201 1.0 1.0 0.00 0.02 0.02 40 1009.7
20260502023506 53 252 0.0 0.0 0.00 0.02 0.02 37 1009.8
20260502022506 53 251 0.0 0.0 0.00 0.02 0.02 37 1009.7
20260502022006 53 300 0.0 0.0 0.00 0.02 0.02 37 1009.8
20260502021506 54 301 0.0 0.0 0.00 0.02 0.02 35 1009.7
20260502021006 54 223 0.0 0.0 0.00 0.02 0.02 35 1009.7
20260502020006 54 220 0.0 0.0 0.00 0.02 0.02 35 1009.8
20260502015506 54 235 0.0 1.0 0.00 0.02 0.02 35 1009.8
20260502014506 54 232 0.0 1.0 0.00 0.02 0.02 36 1009.7
20260502014006 54 241 1.0 1.0 0.00 0.02 0.02 35 1009.7